カタログに戻る

STARLINK-35833

運用中通信VLEO
NORAD 66542·PAYLOAD·🇺🇸 United States

打ち上げ Nov 19, 2025 から Cape Canaveral Space Force Station

Loading…

次のパス (今後24時間)

TLE

最新Source: CelesTrak SupGP

元期: Sep 14, 2026, 23:01 UTC

1 66542C 25265AC  26257.95951389  .00032813  00000+0  11871-2 0  2577
2 66542  43.0023 289.5088 0001696 274.9109 111.9060 15.27600402    17

AllMySatでSTARLINK-35833をリアルタイム追跡

Download on the App Store